Time,TemperatureF,DewpointF,PressureIn,WindDirection,WindDirectionDegrees,WindSpeedMPH,WindSpeedGustMPH,Humidity,HourlyPrecipIn,Conditions,Clouds,dailyrainin,SoftwareType,DateUTC
2013-03-22 00:00:00,51.0,43.0,28.85,West,270,10.0,-999.0,73,-99.99,,,-99.99,,2013-03-22 04:00:00,
2013-03-22 00:42:00,51.0,43.0,28.85,West,270,10.0,-999.0,73,-99.99,,,-99.99,,2013-03-22 04:42:00,
2013-03-22 00:52:00,51.0,43.0,28.85,West,270,10.0,-999.0,73,-99.99,,,-99.99,,2013-03-22 04:52:00,
2013-03-22 02:00:00,50.0,41.0,28.88,North,350,23.0,-999.0,71,-99.99,,,-99.99,,2013-03-22 06:00:00,
2013-03-22 02:21:00,50.0,41.0,28.88,North,350,23.0,-999.0,71,-99.99,,,-99.99,,2013-03-22 06:21:00,
2013-03-22 02:31:00,50.0,41.0,28.88,North,350,23.0,-999.0,71,-99.99,,,-99.99,,2013-03-22 06:31:00,
2013-03-22 02:41:00,50.0,41.0,28.88,North,350,23.0,-999.0,71,-99.99,,,-99.99,,2013-03-22 06:41:00,
2013-03-22 02:51:00,50.0,41.0,28.88,North,350,23.0,-999.0,71,-99.99,,,-99.99,,2013-03-22 06:51:00,
2013-03-22 03:00:00,52.0,43.0,28.91,NNW,330,26.0,-999.0,71,-99.99,,,-99.99,,2013-03-22 07:00:00,
2013-03-22 03:21:00,52.0,43.0,28.91,NNW,330,26.0,-999.0,71,-99.99,,,-99.99,,2013-03-22 07:21:00,
2013-03-22 03:31:00,52.0,43.0,28.91,NNW,330,26.0,-999.0,71,-99.99,,,-99.99,,2013-03-22 07:31:00,
2013-03-22 03:41:00,52.0,43.0,28.91,NNW,330,26.0,-999.0,71,-99.99,,,-99.99,,2013-03-22 07:41:00,
2013-03-22 03:51:00,52.0,43.0,28.91,NNW,330,26.0,-999.0,71,-99.99,,,-99.99,,2013-03-22 07:51:00,
2013-03-22 04:11:00,52.0,45.0,28.92,NW,320,24.0,-999.0,76,-99.99,,,-99.99,,2013-03-22 08:11:00,
2013-03-22 04:21:00,52.0,45.0,28.92,NW,320,24.0,-999.0,76,-99.99,,,-99.99,,2013-03-22 08:21:00,
2013-03-22 04:31:00,52.0,45.0,28.92,NW,320,24.0,-999.0,76,-99.99,,,-99.99,,2013-03-22 08:31:00,
2013-03-22 04:41:00,52.0,45.0,28.92,NW,320,24.0,-999.0,76,-99.99,,,-99.99,,2013-03-22 08:41:00,
2013-03-22 04:51:00,52.0,45.0,28.92,NW,320,24.0,-999.0,76,-99.99,,,-99.99,,2013-03-22 08:51:00,
2013-03-22 05:00:00,53.0,45.0,28.95,NNW,330,22.0,-999.0,73,-99.99,,,-99.99,,2013-03-22 09:00:00,
2013-03-22 05:11:00,53.0,45.0,28.95,NNW,330,22.0,-999.0,73,-99.99,,,-99.99,,2013-03-22 09:11:00,
2013-03-22 05:21:00,53.0,45.0,28.95,NNW,330,22.0,-999.0,73,-99.99,,,-99.99,,2013-03-22 09:21:00,
2013-03-22 05:32:00,53.0,45.0,28.95,NNW,330,22.0,-999.0,73,-99.99,,,-99.99,,2013-03-22 09:32:00,
2013-03-22 05:42:00,53.0,45.0,28.95,NNW,330,22.0,-999.0,73,-99.99,,,-99.99,,2013-03-22 09:42:00,
2013-03-22 05:53:00,53.0,45.0,28.95,NNW,330,22.0,-999.0,73,-99.99,,,-99.99,,2013-03-22 09:53:00,
2013-03-22 06:00:00,52.0,45.0,28.97,NW,320,32.0,-999.0,76,-99.99,,,-99.99,,2013-03-22 10:00:00,
2013-03-22 06:32:00,52.0,45.0,28.97,NW,320,32.0,-999.0,76,-99.99,,,-99.99,,2013-03-22 10:32:00,
2013-03-22 06:41:00,52.0,45.0,28.97,NW,320,32.0,-999.0,76,-99.99,,,-99.99,,2013-03-22 10:41:00,
2013-03-22 06:52:00,52.0,45.0,28.97,NW,320,32.0,-999.0,76,-99.99,,,-99.99,,2013-03-22 10:52:00,
2013-03-22 07:00:00,52.0,41.0,29.03,North,360,29.0,-999.0,66,-99.99,,,-99.99,,2013-03-22 11:00:00,
2013-03-22 07:21:00,52.0,41.0,29.03,North,360,29.0,-999.0,66,-99.99,,,-99.99,,2013-03-22 11:21:00,
2013-03-22 07:32:00,52.0,41.0,29.03,North,360,29.0,-999.0,66,-99.99,,,-99.99,,2013-03-22 11:32:00,
2013-03-22 07:41:00,52.0,41.0,29.03,North,360,29.0,-999.0,66,-99.99,,,-99.99,,2013-03-22 11:41:00,
2013-03-22 07:51:00,52.0,41.0,29.03,North,360,29.0,-999.0,66,-99.99,,,-99.99,,2013-03-22 11:51:00,
2013-03-22 08:00:00,52.0,45.0,29.09,North,360,32.0,-999.0,76,-99.99,,,-99.99,,2013-03-22 12:00:00,
2013-03-22 08:21:00,52.0,45.0,29.09,North,360,32.0,-999.0,76,-99.99,,,-99.99,,2013-03-22 12:21:00,
2013-03-22 08:31:00,52.0,45.0,29.09,North,360,32.0,-999.0,76,-99.99,,,-99.99,,2013-03-22 12:31:00,
2013-03-22 08:41:00,52.0,45.0,29.09,North,360,32.0,-999.0,76,-99.99,,,-99.99,,2013-03-22 12:41:00,
2013-03-22 08:51:00,52.0,45.0,29.09,North,360,32.0,-999.0,76,-99.99,,,-99.99,,2013-03-22 12:51:00,
2013-03-22 10:00:00,52.0,43.0,29.16,NNW,340,38.0,-999.0,71,-99.99,,,-99.99,,2013-03-22 14:00:00,
2013-03-22 10:21:00,52.0,43.0,29.16,NNW,340,38.0,-999.0,71,-99.99,,,-99.99,,2013-03-22 14:21:00,
2013-03-22 10:31:00,52.0,43.0,29.16,NNW,340,38.0,-999.0,71,-99.99,,,-99.99,,2013-03-22 14:31:00,
2013-03-22 10:41:00,52.0,43.0,29.16,NNW,340,38.0,-999.0,71,-99.99,,,-99.99,,2013-03-22 14:41:00,
2013-03-22 10:51:00,52.0,43.0,29.16,NNW,340,38.0,-999.0,71,-99.99,,,-99.99,,2013-03-22 14:51:00,
2013-03-22 11:00:00,51.0,45.0,29.21,NW,310,40.0,-999.0,78,-99.99,,,-99.99,,2013-03-22 15:00:00,
2013-03-22 11:21:00,51.0,45.0,29.21,NW,310,40.0,-999.0,78,-99.99,,,-99.99,,2013-03-22 15:21:00,
2013-03-22 11:32:00,51.0,45.0,29.21,NW,310,40.0,-999.0,78,-99.99,,,-99.99,,2013-03-22 15:32:00,
2013-03-22 11:42:00,51.0,45.0,29.21,NW,310,40.0,-999.0,78,-99.99,,,-99.99,,2013-03-22 15:42:00,
2013-03-22 11:52:00,51.0,45.0,29.21,NW,310,40.0,-999.0,78,-99.99,,,-99.99,,2013-03-22 15:52:00,
2013-03-22 12:00:00,51.0,43.0,29.26,NNW,330,41.0,-999.0,73,-99.99,,,-99.99,,2013-03-22 16:00:00,
2013-03-22 12:12:00,51.0,43.0,29.26,NNW,330,41.0,-999.0,73,-99.99,,,-99.99,,2013-03-22 16:12:00,
2013-03-22 12:22:00,51.0,43.0,29.26,NNW,330,41.0,-999.0,73,-99.99,,,-99.99,,2013-03-22 16:22:00,
2013-03-22 12:32:00,51.0,43.0,29.26,NNW,330,41.0,-999.0,73,-99.99,,,-99.99,,2013-03-22 16:32:00,
2013-03-22 12:41:00,51.0,43.0,29.26,NNW,330,41.0,-999.0,73,-99.99,,,-99.99,,2013-03-22 16:41:00,
2013-03-22 12:52:00,51.0,43.0,29.26,NNW,330,41.0,-999.0,73,-99.99,,,-99.99,,2013-03-22 16:52:00,
2013-03-22 13:00:00,51.0,43.0,29.29,NNW,340,43.0,-999.0,73,-99.99,,,-99.99,,2013-03-22 17:00:00,
2013-03-22 13:12:00,51.0,43.0,29.29,NNW,340,43.0,-999.0,73,-99.99,,,-99.99,,2013-03-22 17:12:00,
2013-03-22 13:22:00,51.0,43.0,29.29,NNW,340,43.0,-999.0,73,-99.99,,,-99.99,,2013-03-22 17:22:00,
2013-03-22 13:32:00,51.0,43.0,29.29,NNW,340,43.0,-999.0,73,-99.99,,,-99.99,,2013-03-22 17:32:00,
2013-03-22 13:41:00,51.0,43.0,29.29,NNW,340,43.0,-999.0,73,-99.99,,,-99.99,,2013-03-22 17:41:00,
2013-03-22 13:52:00,51.0,43.0,29.29,NNW,340,43.0,-999.0,73,-99.99,,,-99.99,,2013-03-22 17:52:00,
2013-03-22 14:00:00,51.0,39.0,29.37,NNW,330,40.0,-999.0,64,-99.99,,,-99.99,,2013-03-22 18:00:00,
2013-03-22 14:11:00,51.0,39.0,29.37,NNW,330,40.0,-999.0,64,-99.99,,,-99.99,,2013-03-22 18:11:00,
2013-03-22 14:21:00,51.0,39.0,29.37,NNW,330,40.0,-999.0,64,-99.99,,,-99.99,,2013-03-22 18:21:00,
2013-03-22 14:32:00,51.0,39.0,29.37,NNW,330,40.0,-999.0,64,-99.99,,,-99.99,,2013-03-22 18:32:00,
2013-03-22 14:41:00,51.0,39.0,29.37,NNW,330,40.0,-999.0,64,-99.99,,,-99.99,,2013-03-22 18:41:00,
2013-03-22 14:52:00,51.0,39.0,29.37,NNW,330,40.0,-999.0,64,-99.99,,,-99.99,,2013-03-22 18:52:00,
2013-03-22 15:00:00,50.0,43.0,29.44,NNW,330,39.0,-999.0,76,-99.99,,,-99.99,,2013-03-22 19:00:00,
2013-03-22 15:11:00,50.0,43.0,29.44,NNW,330,39.0,-999.0,76,-99.99,,,-99.99,,2013-03-22 19:11:00,
2013-03-22 15:21:00,50.0,43.0,29.44,NNW,330,39.0,-999.0,76,-99.99,,,-99.99,,2013-03-22 19:21:00,
2013-03-22 15:32:00,50.0,43.0,29.44,NNW,330,39.0,-999.0,76,-99.99,,,-99.99,,2013-03-22 19:32:00,
2013-03-22 15:41:00,50.0,43.0,29.44,NNW,330,39.0,-999.0,76,-99.99,,,-99.99,,2013-03-22 19:41:00,
2013-03-22 15:51:00,50.0,43.0,29.44,NNW,330,39.0,-999.0,76,-99.99,,,-99.99,,2013-03-22 19:51:00,
2013-03-22 17:00:00,50.0,43.0,29.57,NW,320,43.0,-999.0,76,-99.99,,,-99.99,,2013-03-22 21:00:00,
2013-03-22 17:11:00,50.0,43.0,29.57,NW,320,43.0,-999.0,76,-99.99,,,-99.99,,2013-03-22 21:11:00,
2013-03-22 17:21:00,50.0,43.0,29.57,NW,320,43.0,-999.0,76,-99.99,,,-99.99,,2013-03-22 21:21:00,
2013-03-22 17:32:00,50.0,43.0,29.57,NW,320,43.0,-999.0,76,-99.99,,,-99.99,,2013-03-22 21:32:00,
2013-03-22 17:42:00,50.0,43.0,29.57,NW,320,43.0,-999.0,76,-99.99,,,-99.99,,2013-03-22 21:42:00,
2013-03-22 17:52:00,50.0,43.0,29.57,NW,320,43.0,-999.0,76,-99.99,,,-99.99,,2013-03-22 21:52:00,
2013-03-22 18:00:00,50.0,46.0,29.62,NW,320,41.0,-999.0,87,-99.99,,,-99.99,,2013-03-22 22:00:00,
2013-03-22 18:31:00,50.0,46.0,29.62,NW,320,41.0,-999.0,87,-99.99,,,-99.99,,2013-03-22 22:31:00,
2013-03-22 18:41:00,50.0,46.0,29.62,NW,320,41.0,-999.0,87,-99.99,,,-99.99,,2013-03-22 22:41:00,
2013-03-22 18:52:00,50.0,46.0,29.62,NW,320,41.0,-999.0,87,-99.99,,,-99.99,,2013-03-22 22:52:00,
2013-03-22 20:00:00,50.0,46.0,29.74,NW,320,39.0,-999.0,87,-99.99,,,-99.99,,2013-03-23 00:00:00,
2013-03-22 20:32:00,50.0,46.0,29.74,NW,320,39.0,-999.0,87,-99.99,,,-99.99,,2013-03-23 00:32:00,
2013-03-22 20:41:00,50.0,46.0,29.74,NW,320,39.0,-999.0,87,-99.99,,,-99.99,,2013-03-23 00:41:00,
2013-03-22 20:51:00,50.0,46.0,29.74,NW,320,39.0,-999.0,87,-99.99,,,-99.99,,2013-03-23 00:51:00,
2013-03-22 21:00:00,50.0,46.0,29.77,NW,320,32.0,-999.0,87,-99.99,,,-99.99,,2013-03-23 01:00:00,
2013-03-22 21:31:00,50.0,46.0,29.77,NW,320,32.0,-999.0,87,-99.99,,,-99.99,,2013-03-23 01:31:00,
2013-03-22 21:42:00,50.0,46.0,29.77,NW,320,32.0,-999.0,87,-99.99,,,-99.99,,2013-03-23 01:42:00,
2013-03-22 21:52:00,50.0,46.0,29.77,NW,320,32.0,-999.0,87,-99.99,,,-99.99,,2013-03-23 01:52:00,
2013-03-22 22:00:00,50.0,37.0,29.80,NNW,330,30.0,-999.0,61,-99.99,,,-99.99,,2013-03-23 02:00:00,
2013-03-22 22:11:00,50.0,37.0,29.80,NNW,330,30.0,-999.0,61,-99.99,,,-99.99,,2013-03-23 02:11:00,
2013-03-22 22:22:00,50.0,37.0,29.80,NNW,330,30.0,-999.0,61,-99.99,,,-99.99,,2013-03-23 02:22:00,
2013-03-22 22:31:00,50.0,37.0,29.80,NNW,330,30.0,-999.0,61,-99.99,,,-99.99,,2013-03-23 02:31:00,
2013-03-22 22:42:00,50.0,37.0,29.80,NNW,330,30.0,-999.0,61,-99.99,,,-99.99,,2013-03-23 02:42:00,
2013-03-22 22:51:00,50.0,37.0,29.80,NNW,330,30.0,-999.0,61,-99.99,,,-99.99,,2013-03-23 02:51:00,
2013-03-22 23:00:00,50.0,37.0,29.82,NNW,340,26.0,-999.0,61,-99.99,,,-99.99,,2013-03-23 03:00:00,
2013-03-22 23:11:00,50.0,37.0,29.82,NNW,340,26.0,-999.0,61,-99.99,,,-99.99,,2013-03-23 03:11:00,
2013-03-22 23:32:00,50.0,37.0,29.82,NNW,340,26.0,-999.0,61,-99.99,,,-99.99,,2013-03-23 03:32:00,
2013-03-22 23:42:00,50.0,37.0,29.82,NNW,340,26.0,-999.0,61,-99.99,,,-99.99,,2013-03-23 03:42:00,
2013-03-22 23:52:00,50.0,37.0,29.82,NNW,340,26.0,-999.0,61,-99.99,,,-99.99,,2013-03-23 03:52:00,